SL-6 R/B(2), 12384

Orbit data source: Space-Track

SL-6 R/B(2), 12384 is space debris in HEO originally from a launch on Tue, 31 Mar 1981 UTC launched from the Plesetsk Missile And Space Complex (PKMTR). Debris objects in space refer to the collection of defunct objects orbiting the Earth. Examples of debris include non-operational satellites, rocket bodies, and fragments generated from explosions, collisions, or faulty payload assembly.

Loading next visibility...
Identifier
12384, 1981-031D
Orbit
HEO
Country
Flag of CISCIS
Related business
Manufacturer
NPO Energiya
Mission
Spacecraft
Bus & Motor
BLOK-L, Unknown motor
Mass
~900 kg wet, ~900 kg dry
Launch date (UTC)
1981-03-31 (44 years ago)
Launch vehicle
Unknown
Launch site
Plesetsk Missile And Space Complex (PKMTR)
Object type
Payload
Rocket body
Debris
Shape & HBR
Cyl, 1.4 m
Radar Cross Section
7.756 m², Large (>1 m²)

Expand to show TLE details & history
Last TLE update: 1 day ago

TLE from 1 day ago
0 SL-6 R/B(2)
1 12384U 81031D   25257.90267357 -.00000181  00000-0  00000-0 0  9992
2 12384  67.4899  88.9781 6233268   5.1954 359.1344  2.03534678330517
Epoch: 2025-09-14T21:39Z
TLE epoch observation values (Epoch: 2025-09-14T21:39:50.996Z)
Latitude
-0.00019°
Longitude
129.89383°
Altitude
3,556.817 km
Speed
8.068 km/s
True Right ascension
05h 55m 53s
True Declination
0° 00' 01"
Sunlit
Object was in daylight at epoch
Visualization orbit readout
Latitude
Unknown
Longitude
Unknown
Altitude
Unknown
Speed
Unknown
Apparent Right ascension
Unknown
Apparent Declination
Unknown
Sunlit
N/A
Visualization observer readout
Local Sidereal Time
19:03:44
Azimuth
Unknown
Elevation
Unknown
Doppler factor
Unknown
Orbital elements
Apogee altitude
36,315.805 km
Perigee altitude
3,528.472 km
Semi-major axis
26,300.276 km
Eccentricity
0.62333
Inclination
67.4899°
RAAN
88.9781°
Arg. of periapsis
5.1954°
True anomaly
355.23362°
Mean anomaly
359.1344°
Eccentric anomaly
357.703°
Mean motion
0.50887 °/min
Orbital period
707.46 mins
BSTAR
0
Loading maneuver chart data...
Computing Atmospheric mass density...
Loading historical data...
Loading historical data...
Loading historical data...
Loading historical data...
Loading historical data...
Loading historical data...
Loading historical data...

Documentation

Showing up to 5 results
|